Regional Weather Roundup
Issued by NWS

Home | Current Version | Previous Version | Graphics & Text | Print | Product List | Glossary On
Versions: 1 2 3 4 5 6 7 8 9 10 11 12 13 14 15 16 17 18 19 20 21 22 23 24 25 26 27 28 29 30 31 32 33 34 35 36 37 38 39 40 41 42 43 44 45 46 47 48 49 50
000
ASUS43 KDTX 171910
RWRMI
MICHIGAN HOURLY REGIONAL WEATHER ROUNDUP
NATIONAL WEATHER SERVICE DETROIT/PONTIAC MI
300 PM EDT FRI APR 17 2015

NOTE: "FAIR" INDICATES FEW OR NO CLOUDS BELOW 12,000 FEET WITH NO
SIGNIFICANT WEATHER AND/OR OBSTRUCTION TO VISIBILITY.

MIZ047>049-052>055-059>063-066>070-074>076-081>083-172000-
SOUTHEAST LOWER MICHIGAN

CITY           SKY/WX    TMP DP  RH WIND       PRES   REMARKS
ADRIAN         SUNNY     73  38  27 W10       30.04F
ALMA           MOSUNNY   75  35  23 W13       30.02F
ANN ARBOR      MOSUNNY   75  36  24 W7        30.03F
BAD AXE        SUNNY     68  36  31 W5        30.03F
CARO           SUNNY     71  40  31 CALM      30.02F
DETROIT CITY   SUNNY     71  44  37 SE14      30.03F
DETROIT        MOSUNNY   74  41  30 SE7       30.03F
FLINT          PTSUNNY   77  38  24 NW7G17    30.02F
GROSSE ILE     SUNNY     63  48  59 S9        30.04F
HILLSDALE      SUNNY     74  36  25 SW7       30.05F
HOWELL         CLOUDY    74  36  24 SW9       30.03S

CITY           SKY/WX    TMP DP  RH WIND       PRES   REMARKS
JACKSON        PTSUNNY   75  39  27 SW9G17    30.03F
LAMBERTVILLE   SUNNY     73  37  27 W6        30.05F
LANSING        MOSUNNY   75  38  26 W10       30.03F
LAPEER         FAIR      72  36  26 NW7       30.02F
MASON          PTSUNNY   74  36  25 W10G20    30.03F
MONROE         SUNNY     70  48  46 SE10      30.03F
MT. CLEMENS    MOSUNNY   66  50  55 S9        30.02F
PONTIAC        MOSUNNY   73  35  25 VRB3      30.02F
PORT HOPE        N/A     53  45  74 SE13      30.02F
PORT HURON     SUNNY     66  46  48 NE8       30.04S
TRI CITIES     MOSUNNY   74  42  31 NE9       30.01F
TROY           SUNNY     75  34  22 NW5       30.04F
SAGINAW HB     MOSUNNY   73  37  27 SW6       30.01F
$$
MIZ043>046-050>051-056>058-064>065-071>073-077>080-172000-
SOUTHWEST LOWER MICHIGAN

CITY           SKY/WX    TMP DP  RH WIND       PRES   REMARKS
BATTLE CREEK   PTSUNNY   77  41  27 W8        30.04F
BENTON HARBOR  SUNNY     66  49  54 SW7       30.06F
BIG RAPIDS     MOSUNNY   73  35  24 NW9G16    30.01F
COLDWATER      MOSUNNY   72  39  29 NW7       30.04F
FREMONT        FAIR      73  35  24 W5        30.02F
HOLLAND        SUNNY     67  48  50 W10       30.06F
GRAND RAPIDS   PTSUNNY   74  40  29 SW10      30.03F
IONIA          FAIR      75  37  24 W8        30.02F
KALAMAZOO      MOSUNNY   76  40  27 W7        30.04F
LUDINGTON      SUNNY     56  42  60 W8        30.05S
MARSHALL       CLOUDY    73  42  32 W3G17     30.03F
MOUNT PLEASANT MOSUNNY   72  39  30 CALM      30.01F
MUSKEGON       CLOUDY    62  43  49 SW6       30.05F
SOUTH HAVEN    SUNNY     71  44  38 W6        30.05F
$$
MIZ016>042-172000-
NORTHERN LOWER MICHIGAN

CITY           SKY/WX    TMP DP  RH WIND       PRES   REMARKS
ALPENA         SUNNY     65  42  43 SE9       30.00F
BEAVER ISLAND  SUNNY     63  29  28 W3        30.04F
BELLAIRE       SUNNY     67  39  36 N5        30.03F
CADILLAC       SUNNY     71  38  30 N7        30.02F
CHARLEVOIX     SUNNY     58  37  46 N6        30.07F
FRANKFORT      SUNNY     64  35  33 N5        30.04F
GAYLORD        SUNNY     64  38  38 W9        30.02F
GRAYLING       PTSUNNY   71  38  29 W6G16     30.02F
HARBOR SPRINGS SUNNY     44  36  74 SW7       30.04F
HOUGHTON LAKE  MOSUNNY   67  38  34 VRB5      30.02F
MANISTEE       SUNNY     55  39  54 NW9       30.05S
OSCODA         MOSUNNY   67  42  39 SE15      29.99F
PELLSTON       SUNNY     66  32  28 W14       30.03F
ROGERS CITY    SUNNY     59  42  53 N12       30.02F
TRAVERSE CITY  SUNNY     56  41  57 NE9       30.04F
$$
MIZ007>008-015-172000-
EASTERN UPPER MICHIGAN

CITY           SKY/WX    TMP DP  RH WIND       PRES   REMARKS
KINROSS        SUNNY     57  30  35 NW12      30.03S
MACKINAC ISLAN SUNNY     53  38  57 W5        30.02F
NEWBERRY       SUNNY     58  29  34 NW9       30.03F
S. S. MARIE    SUNNY     55  36  48 NW12G18   30.03F
MUNISING         N/A     43  33  68 NE5       30.06F
$$
MIZ004>006-011>014-085-172000-
CENTRAL UPPER MICHIGAN

CITY           SKY/WX    TMP DP  RH WIND       PRES   REMARKS
MANISTIQUE     SUNNY     66  32  28 NW5       30.03S
ESCANABA       SUNNY     59  34  38 SE13      30.03F
MENOMINEE      SUNNY     61  37  41 E10       30.03F
SAWYER-GWINN   SUNNY     61  30  31 E8        30.04F
$$
MIZ001>003-009>011-084-172000-
WESTERN UPPER MICHIGAN

CITY           SKY/WX    TMP DP  RH WIND       PRES   REMARKS
IRON MOUNTAIN  SUNNY     70  38  31 VRB3      29.99F
HOUGHTON       SUNNY     63  30  28 VRB7      30.01F
COPPER HARBOR    N/A     45  35  68 CALM      30.03F
IRONWOOD       SUNNY     64  34  32 NW10      30.00F
$$

ABBREVIATIONS USED IN REMARKS
   TC - TEMPERATURE IN CELSIUS
  WCI - WIND CHILL INDEX
   HX - HEAT INDEX
  VSB - VISIBILITY




USA.gov is the U.S. government's official web portal to all federal, state and local government web resources and services.